BREEZE-KM DEB, 41722

Orbit data source: Space-Track

BREEZE-KM DEB, 41722 is space debris in LEO originally from a launch on Tue, 31 Mar 2015 UTC launched from the Plesetsk Missile And Space Complex (PKMTR). Debris objects in space refer to the collection of defunct objects orbiting the Earth. Examples of debris include non-operational satellites, rocket bodies, and fragments generated from explosions, collisions, or faulty payload assembly.

Loading next visibility...
Identifier
41722, 2015-020K
Orbit
LEO
Country
Flag of CISCIS
Related business
Manufacturer
Khrunichev
Mission
Spacecraft
Bus & Motor
Unknown
Mass
Unknown
Launch date (UTC)
2015-03-31 (11 years ago)
Launch vehicle
Unknown
Launch site
Plesetsk Missile And Space Complex (PKMTR)
Object type
Payload
Rocket body
Debris
Shape & HBR
Unknown shape, 0.1 m
Radar Cross Section
Small (<0.1 m²)

Expand to show TLE details & history
Last TLE update: 1 day ago

TLE from 1 day ago
0 BREEZE-KM DEB
1 41722U 15020K   25297.05585376  .00000034  00000-0  10427-3 0  9992
2 41722  82.4920  51.7133 0179588  34.0621 327.1848 12.70520805461810
Epoch: 2025-10-24T01:20Z
TLE epoch observation values (Epoch: 2025-10-24T01:20:25.764Z)
Latitude
-0.00008°
Longitude
-1.1003°
Altitude
1,266.199 km
Speed
7.276 km/s
True Right ascension
03h 26m 51s
True Declination
0° 00' 00"
Sunlit
Object was in full shadow at epoch
Visualization orbit readout
Latitude
Unknown
Longitude
Unknown
Altitude
Unknown
Speed
Unknown
Apparent Right ascension
Unknown
Apparent Declination
Unknown
Sunlit
N/A
Visualization observer readout
Local Sidereal Time
01:06:30
Azimuth
Unknown
Elevation
Unknown
Doppler factor
Unknown
Orbital elements
Apogee altitude
1,516.406 km
Perigee altitude
1,237.855 km
Semi-major axis
7,755.267 km
Eccentricity
0.01796
Inclination
82.492°
RAAN
51.7133°
Arg. of periapsis
34.0621°
True anomaly
326.04819°
Mean anomaly
327.1848°
Eccentric anomaly
326.61866°
Mean motion
3.17796 °/min
Orbital period
113.28 mins
BSTAR
0.00010427
Loading maneuver chart data...
Computing Atmospheric mass density...
Loading historical data...
Loading historical data...
Loading historical data...
Loading historical data...
Loading historical data...
Loading historical data...
Loading historical data...

Documentation

Showing up to 5 results
|